Flag for U.S.A. Weather past 2 weeks in Rapid City, South Dakota, U.S.A.

Now
67 °F

Clear.


Feels Like: 67 °F
Forecast: 60 / 80 °F
Wind: 10 mph from North

Location: Ellsworth Air Force Base

Current Time: Jul 26, 2014 at 5:36:20 AM

Latest Report: Jul 26, 2014 at 4:58 AM


Visibility: 10 mi

Pressure: 29.87 "Hg

Humidity: 59%

Dew point: 52 °F

Location of Rapid CityLocation

Historic Weather in Rapid City — Graph

°F

Rapid City temperature yesterday

Maximum temperature yesterday: 82 °F (at 3:58 PM)
Minimum temperature yesterday: 64 °F (at 5:58 AM)
Average temperature yesterday: 73 °F

Past Weeks' High & Low Weather Summary

 TemperatureHumidityPressure
High97 °F (Jul 21, 3:58 PM)94% (Jul 17, 4:58 AM)30.32 "Hg (Jul 17, 4:58 AM)
Low47 °F (Jul 15, 5:58 AM)18% (Jul 21, 3:58 PM)29.57 "Hg (Jul 24, 8:58 PM)
Average72 °F60%29.95 "Hg
* Reported Jul 11 3:58 AM — Jul 26 3:58 AM, Rapid City, Weather by CustomWeather, © 2014

Note: Actual official high and low records may vary slightly from our data, if they occured in-between our weather recording intervals... More about our weather records

Advertising

Rapid City weather history for previous 24 hours

 ConditionsComfort  
Time TempWeatherWind HumidityBarometerVisibility
3:58 AM
Jul 26
67 °FClear.14 mph54%29.85 "Hg10 mi
2:58 AM67 °FClear.12 mph55%29.83 "Hg10 mi
1:58 AM63 °FClear.6 mph73%29.83 "Hg10 mi
12:58 AM69 °FClear.8 mph53%29.83 "Hg10 mi
11:58 PM
Jul 25
72 °FClear.9 mph49%29.82 "Hg10 mi
10:58 PM66 °FClear.6 mph69%29.82 "Hg10 mi
9:58 PM71 °FClear.3 mph54%29.82 "Hg8 mi
8:58 PM74 °FPassing clouds.5 mph51%29.83 "Hg10 mi
7:58 PM76 °FSunny.8 mph50%29.82 "Hg10 mi
6:58 PM80 °FSunny.8 mph40%29.79 "Hg10 mi
5:58 PM81 °FSunny.14 mph35%29.79 "Hg10 mi
4:58 PM82 °FSunny.13 mph33%29.80 "Hg10 mi
3:58 PM82 °FSunny.12 mph31%29.82 "Hg10 mi
2:58 PM81 °FSunny.10 mph32%29.84 "Hg10 mi
1:58 PM79 °FSunny.2 mph31%29.88 "Hg10 mi
12:58 PM77 °FSunny.6 mph30%29.89 "Hg10 mi
11:58 AM75 °FSunny.5 mph29%29.91 "Hg10 mi
10:58 AM74 °FSunny.8 mph29%29.93 "Hg10 mi
9:58 AM73 °FSunny.12 mph28%29.93 "Hg10 mi
8:58 AM71 °FSunny.15 mph31%29.93 "Hg10 mi
7:58 AM68 °FSunny.10 mph36%29.93 "Hg10 mi
6:58 AM65 °FSunny.13 mph37%29.90 "Hg10 mi
5:58 AM64 °FClear.18 mph36%29.88 "Hg10 mi
Weather by CustomWeather, © 2014

See weather overviewHow to use our weather pages